星链-31099 (STARLINK-31099 )

导读

STARLINK-31099是美国SpaceX公司星链星座中的一颗低轨通信卫星,于2024年1月14日发射升空。它运行在近地轨道,依托星链星座组网能力,可为全球偏远地区、网络基础设施薄弱区域提供高速低延迟宽带互联网服务,是SpaceX构建全球覆盖低轨卫星互联网计划的重要组成部分,助力推动全球互联网络覆盖进一步完善。

基本信息
目录编号:
58781
目录名称:
STARLINK-31099
国际标识:
2024-011S
轨道中心:
EARTH
卫星名称:
星链-31099
卫星全名:
星链-31099 (STARLINK-31099 )
卫星状态:
在轨 (已飞行886 天)
发射日期:
2024-01-14 UTC
国别 :
美国 (US)
星等 :
--
轨道信息
数据来源 国际轨道数据
星历时间: 2026-06-17T22:13:29+0800
17小时前
查看轨道信息
半长轴: 6853.363km
偏心率: 0.0001396
轨道倾角: 53.162°
近地点辐角 75.422°
升交点赤经 269.789°
平近点角 284.693°
近地点: 474.269km
远地点: 476.183km
周期: 94.106分钟
每日圈数: 15.301964
详细信息
固有亮度:
5
最大亮度:
0.3
卫星平台:
Starlink v2.0 mini
覆盖范围:
全球
运营商:
太空探索技术公司
运营商所在国:
美国
制造商(研发单位):
太空探索技术公司
制造商所在国:
美国
使用方式:
暂无
卫星简介
星链(Starlink)计划是由太空探索技术公司(SpaceX)提出的一个巨型低轨卫星互联网星座项目,计划在2019年至2024年间在太空搭建由约1.2万颗卫星组成的“星链”网络,其中1584颗将部署在地球上空550千米处的近地轨道,并从2020年开始工作。该卫星仍在工作。
2D轨道图
3D轨道图
轨道高度分析图
轨道倾角分析图
轨道综合分析图
查看轨道综合分析图